Погода в Темире

Погода в Темире : погода сейчас, прогноз погоды и архив. Всё, что Вы хотите узнать о погоде в Темире!

Хотите узнать прогноз погоды в Темире? Тогда Вам сюда: Погода в Темире

Поиск расширенной информации на нашем сайте:

Полезная информация: матрасы ватные СПб

Другие новости

Новости СМИ2

Главная страница сайта

Новости сайта

03.07.2017

Напоминаем, что на нашем специализированном сайте Метеоцентр.Азия вы можете получить высокодетализированные автоматические прогнозы погоды по пунктам России, СНГ и мира в авиационном формате (включающие направление и скорость ветра, видимость, явления погоды, количество и форму облачности, нижнюю и верхнюю границу облачности).

Рекомендуем: Садовые домики дешевле - строительство садовых домиков. Срубы, срубы, срубы.

Погода в Темире - сегодня

Время (UTC), дата Ветер
(°,м/с) 
Видим.   Явления Облачность Т
(°С)
Тd
(°С)
f(%) Тe
(°С)
Pmin
(гПа)
dP
(гПа)
Po
(мм)
O2
(г/м3)
Тmin Tmax R s Состояние
почвы
21 23.05.18 120 (ЮВ) н/о    ясно 
+17.6 +3.7 40 +18  1026.1  -0.2  749  283           
00 24.05.18 110 (В) н/о    ясно 
+13.6 +4.5 54 +15  1026.6  0.1  749  287           
03 24.05.18 150 (ЮВ) 20000 м    ясно 
+17.6 +2.8 37 +18  1026.4  0.1  749  283           
06 24.05.18 180 (Ю) 20000 м    ясно 
+26.7 +2.7 21 +27  1024  -1.5  748  274  +12.4         
09 24.05.18 220 (ЮЗ) 20000 м    ясно 
+30 +2.5 17 +30  1021.9  -1.7  747  271           
12 24.05.18 190 (Ю) 20000 м    ясно 
+31.5 +2 15 +32  1019.7  -2.1  745  269           
15 24.05.18 170 (Ю) 20000 м    ясно 
+30.4 +1.9 16 +30  1018.3  -1.4  744  269    +33.8       
18 24.05.18 130 (ЮВ) н/о    ясно 
+21 +3.5 32 +21  1018.8  -0.3  744  278    +33.8       
21 24.05.18 тихо ()   н/о    ясно 
+16.7 +2.7 39 +17  1018.4  -0.8  743  282           
00 25.05.18 130 (ЮВ) н/о    ясно 
+13.5 -0.8 37 +15  1018.2  -0.6  743  285           
03 25.05.18 тихо ()   20000 м    ясно 
+15.9 +0.8 36 +16  1017.5  -0.4  743  283           
06 25.05.18 160 (Ю) 20000 м    ясно 
+26.3 -4.5 13 +26  1015.1  -1.5  741  273  +12.5         
09 25.05.18 190 (Ю) 20000 м    ясно 
+30.2 -2 12 +30  1012.7  -1.9  740  269           
12 25.05.18 180 (Ю) 20000 м    ясно 
+31.6 -1.8 12 +32  1010.2  -2.3  738  267           
15 25.05.18 210 (ЮЗ) 20000 м    ясно 
+31.1 -5.5 9 +31  1008.6  -1.6  737  267    +34.2       
18 25.05.18 160 (Ю) н/о    ясно 
+20 +2.5 31 +20  1008.2  -1.3  736  276    +34.2       
21 25.05.18 150 (ЮВ) н/о    ясно 
+16.1 -0.9 31 +17  1005.9  -2.7  734  279           
00 26.05.18 180 (Ю) н/о    8/0 средняя, верхняя 
[Ac cuf|Ci fib]
+17.2 -3.1 25 +19  1004  -1.7  733  278           
03 26.05.18 350 (С) 20000 м    8/0 верхняя 
[Ci fib]
+16.2 +10 67 +19  1003.9  -0.1  733  277           
06 26.05.18 020 (С) 20000 м    8/0 средняя, верхняя 
[Ac cuf|Cs]
+17.6 +9.5 59 +19  1004.5  0.7  733  276  +15.5         
09 26.05.18 020 (С) 20000 м    10/5 600 м кучево-дожд., средняя, верхняя 
[Cb calv|Ac cuf|Cs]
+16.9 +6.9 52 +17  1007.9  3.2  736  278           
12 26.05.18 360 (С) 20000 м  {ливн. осадки}  9/9 600 м кучево-дожд. 
[Cb cap]
+7.7 +5 83 +6  1012.7  3.8  738  289           
15 26.05.18 020 (С) 20000 м    9/9 600 м кучево-дожд. 
[Cb cap]
+8.6 +2.7 66 +7  1015.1  2.4  740  289    +19.5     
18 26.05.18 030 (СВ) н/о    8/8 600 м кучево-дожд. 
[Cb cap]
+7.8 +2.3 68 +6  1017.6  2.4  742  290    +19.5     
21 26.05.18 050 (СВ) н/о    3/0 средняя 
[Ac cuf]
+5.6 +1.6 75 +4  1019.8  1.8  743  293           
Время (UTC), дата Ветер
(°,м/с) 
Видим.   Явления Облачность Т
(°С)
Тd
(°С)
f(%) Тe
(°С)
Pmin
(гПа)
dP
(гПа)
Po
(мм)
O2
(г/м3)
Тmin Tmax R s Состояние
почвы

Для получения пояснительной информации подведите курсор к названию столбца.

ПОГОДА в Темире - архив

Всё, что Вы хотите узнать о погоде в Темире - удобно и подробно!

Выберите нужную дату (начиная с 1 января 2015* года) и нажмите кнопку "Найти".
Будут отображены архивные сводки погоды по пункту Темир, начиная с указанной даты.


Отображать данные в формате CSV (для использования в таблицах Excel)


Внимание! Наш архив погоды предназначен исключительно для личного некоммерческого использования в познавательных целях. Если Вам необходимы официальные справки о состоянии погоды (для производственных, юридических, коммерческих и т.п. целей), обращайтесь в органы Росгидромета.

*Примечание: данная дата относится к архиву по метеостанциям СССР (Россия, СНГ, Балтия).
Архив по метеостанциям Зарубежной Европы и Азии (кроме Китая) хранится 10 дней, по другим регионам земного шара (Китай, Африка, Америка, Австралия, Океания) - 1 день.

Темир - район местоположения метеостанции


Название, широта, долгота, высота метеостанции:
Темир 49.2°ш. 57.1°д. 234 м над ур. моря [Казахстан]

Дополнительная информация

В oтличие oт бoльшинства пoгoдных сайтoв мы публикуем пoдрoбную метеoинфoрмацию в детальнoм прoфессиoнальнoм фoрмате.

Характеристики температуры и влажнoсти вoздуха измеряются на высoте 2 м в тени вдали oт зданий и деревьев.
Скoрoсть ветра измеряется на высoте 10 м (на урoвне рoста челoвека скoрoсть ветра ниже в 1.5-2 раза). Если метеoстанция нахoдится в гoрoде или в лесу, тo скoрoсть ветра занижена на 2-4 м/с пo сравнению с oткрытым местoм. Скoрoсть ветра над акватoриями крупных рек и oзёр, а также на вершинах хoлмoв на 2-5 м/с выше, чем в oбычных услoвиях.
Атмoсфернoе давление в разных тoчках местнoсти мoжет значительнo oтличаться oт давления на метеoстанции, в зависимoсти oт услoвий рельефа (при пoдъёме на 10 м давление пoнижается примернo на 1 мм рт.ст.).